1998-067WA

Last updated on Wed Nov 01 2023 00:02:07 GMT+0000 (Coordinated Universal Time)

1 58174U 98067WA 23304.38023858 .00066764 00000+0 11495-2 0 9994 2 58174 51.6462 13.9345 0001596 56.6968 43.7034 15.50451083 897
UTC large
Height (km)
Speed (km/s)
/
Latitude / Longitude
Inclination (degrees)
Orbital Period (minutes)
Azimuth
Elevation
Range (km)
Doppler Factor

Next 0 passes for location: London (51.5072 / 0.1276)

Sorry there are no passes over London.